STARLINK-1272, 45386

Orbit data source: Space-Track

STARLINK-1272, 45386 is a payload satellite owned by SpaceX/Seattle (US) in LEO that was launched on Wed, 18 Mar 2020 UTC via an FALCON 9 launch vehicle from the Air Force Eastern Test Range (AFETR). Payload-class satellites include a variety of spacecraft equipped with specific instruments for various scientific and technological missions. These include communications satellites like Starlink; space stations such as the ISS; scientific satellites like the Hubble; Earth observation satellites from companies like Planet Labs, Umbra, and HawkEye 360; GPS; miniature CubeSats for education and research; and military/defense satellites.

Loading next visibility...
Identifier
45386, 2020-019AC
Orbit
LEO
Country
Flag of USUS
Related business
Manufacturer
SpaceX/Seattle
Mission
Operational Commercial Communications
Bus & Motor
STARLINK, Unknown motor
Mass
260 kg wet, ~248 kg dry
Launch date (UTC)
2020-03-18 (5 years ago)
Launch vehicle
FALCON 9
Launch site
Air Force Eastern Test Range (AFETR)
Object type
Payload
Rocket body
Debris
Shape & HBR
Box + 1 Pan, 4.4 m
Radar Cross Section
13.562 m², Large (>1 m²)

Expand to show TLE details & history
Last TLE update: 1 day ago

TLE from 1 day ago
0 STARLINK-1272
1 45386U 20019AC  25257.19267526 -.00000032  00000-0  16743-4 0  9998
2 45386  53.0559 218.9463 0001033  91.0172 269.0935 15.06404978303403
Epoch: 2025-09-14T04:37Z
TLE epoch observation values (Epoch: 2025-09-14T04:37:27.142Z)
Latitude
-0.00005°
Longitude
156.16797°
Altitude
548.087 km
Speed
7.589 km/s
True Right ascension
14h 35m 47s
True Declination
0° 00' 00"
Sunlit
Object was in daylight at epoch
Visualization orbit readout
Latitude
Unknown
Longitude
Unknown
Altitude
Unknown
Speed
Unknown
Apparent Right ascension
Unknown
Apparent Declination
Unknown
Sunlit
N/A
Visualization observer readout
Local Sidereal Time
02:56:55
Azimuth
Unknown
Elevation
Unknown
Doppler factor
Unknown
Orbital elements
Apogee altitude
548.182 km
Perigee altitude
546.751 km
Semi-major axis
6,925.604 km
Eccentricity
0.0001
Inclination
53.0559°
RAAN
218.9463°
Arg. of periapsis
91.0172°
True anomaly
269.08166°
Mean anomaly
269.0935°
Eccentric anomaly
269.08758°
Mean motion
3.7658 °/min
Orbital period
95.6 mins
BSTAR
0.000016743
Loading maneuver chart data...
Computing Atmospheric mass density...
Loading historical data...
Loading historical data...
Loading historical data...
Loading historical data...
Loading historical data...
Loading historical data...
Loading historical data...

Documentation

Showing up to 5 results
|